Tracking 25710 objects as of 6-Jul-2022
HD Live streaming from Space Station
objects crossing your sky now

OPS 7898 (P/L 4)

Track OPS 7898 (P/L 4) now!
10-day predictions
OPS 7898 (P/L 4) is classified as:


NORAD ID: 5682
Int'l Code: 1971-110E
Perigee: 984.5 km
Apogee: 997.0 km
Inclination: 70.0 °
Period: 104.8 minutes
Semi major axis: 7361 km
RCS: Unknown
Launch date: December 14, 1971
Source: United States (US)
Launch site: AIR FORCE WESTERN TEST RANGE (AFWTR)
aabbcc
Your satellite tracking list
Your tracking list is empty




NASA's NSSDC Master Catalog

Two Line Element Set (TLE):
1 05682U 71110E   22187.50981559 -.00000020  00000-0  31379-4 0  9993
2 05682  69.9903 100.3674 0008456 195.8125 164.2707 13.74453754147062
Source of the keplerian elements: McCants